CDT,Max TemperatureF,Mean TemperatureF,Min TemperatureF,Max Dew PointF,MeanDew PointF,Min DewpointF,Max Humidity, Mean Humidity, Min Humidity, Max Sea Level PressureIn, Mean Sea Level PressureIn, Min Sea Level PressureIn, Max VisibilityMiles, Mean VisibilityMiles, Min VisibilityMiles, Max Wind SpeedMPH, Mean Wind SpeedMPH, Max Gust SpeedMPH,PrecipitationIn, CloudCover, Events, WindDirDegrees
2012-9-1,86,78,71,73,73,70,94,83,62,30.07,30.02,29.97,8,7,7,17,7,,0.00,4,,81
2012-9-2,86,78,71,75,73,72,100,84,66,30.06,29.99,29.93,7,7,6,14,5,,4.05,3,Rain,68
2012-9-3,82,76,69,75,71,68,100,85,66,30.05,29.99,29.91,7,7,7,9,1,,0.00,4,,83
2012-9-4,86,77,68,72,68,64,94,76,55,30.04,29.98,29.93,8,8,7,9,2,,0.00,4,,127
2012-9-5,87,78,69,70,67,66,88,71,49,30.01,29.96,29.91,8,8,7,12,3,,0.00,4,,128
2012-9-6,89,79,69,73,70,66,100,77,52,30.04,29.96,29.90,10,8,7,14,3,,0.00,3,,126
2012-9-7,87,78,69,72,69,66,94,73,52,30.02,29.93,29.86,10,8,7,12,3,,0.00,3,,120
2012-9-8,87,78,68,70,67,64,88,71,49,30.01,29.93,29.87,8,8,7,9,3,,0.00,1,,122
2012-9-9,87,78,69,70,67,64,94,72,49,30.04,29.98,29.92,8,8,7,12,3,,0.00,2,,102
2012-9-10,84,76,69,72,69,66,89,78,62,30.07,30.00,29.94,8,7,7,10,2,,0.00,4,,104
2012-9-11,86,78,69,72,67,64,88,73,55,30.08,30.02,29.96,10,8,7,14,3,,0.00,2,,76
2012-9-12,86,77,68,70,68,64,88,73,55,30.06,29.98,29.77,8,7,7,14,4,,0.00,3,,53
2012-9-13,87,80,73,72,70,68,83,73,55,30.01,29.94,29.88,8,8,7,14,3,,0.35,3,,54
2012-9-14,86,78,69,70,68,64,88,75,55,30.01,29.95,29.89,8,8,7,8,1,,1.75,4,,338
2012-9-15,84,75,66,70,67,63,94,76,58,30.03,29.96,29.89,8,7,7,6,1,,0.65,4,,120
2012-9-16,86,77,68,72,68,64,88,78,62,30.01,29.96,29.90,8,7,7,7,1,,0.00,5,Thunderstorm,126
2012-9-17,89,79,69,70,68,66,88,72,49,29.99,29.93,29.85,8,7,7,9,2,,0.00,5,,138
2012-9-18,89,81,73,72,69,68,83,71,52,29.99,29.93,29.87,8,7,7,9,3,,0.00,5,,154
2012-9-19,87,79,71,70,69,66,88,70,52,30.02,29.96,29.89,8,7,6,10,3,,0.00,4,Rain,123
2012-9-20,86,78,69,72,69,64,88,75,55,29.99,29.93,29.86,8,7,2,17,5,,0.00,5,Rain-Thunderstorm,86
2012-9-21,84,76,69,73,70,64,100,83,66,29.97,29.89,29.82,8,8,7,15,4,,0.00,5,,86
2012-9-22,80,74,69,75,73,70,100,95,70,30.01,29.94,29.88,8,7,2,12,1,,4.00,6,Rain-Thunderstorm,109
2012-9-23,84,76,69,75,72,70,100,90,70,30.08,30.00,29.93,8,7,6,23,3,23,0.00,6,,84
2012-9-24,80,74,69,75,72,68,100,95,84,30.05,29.99,29.92,7,6,3,46,5,23,0.65,6,Rain-Thunderstorm,52
2012-9-25,80,74,69,75,73,70,100,95,79,30.03,29.97,29.92,8,6,2,14,4,23,0.25,7,Rain,65
2012-9-26,82,75,68,75,73,68,100,93,79,30.06,29.97,29.90,7,7,6,9,1,,0.00,6,Rain,91
2012-9-27,86,78,71,75,74,72,100,88,70,30.07,29.99,29.94,8,8,7,14,3,,2.55,4,,74
2012-9-28,84,76,69,73,67,63,100,71,51,30.02,29.94,29.88,8,7,6,12,3,,0.00,3,,67
2012-9-29,84,76,69,72,67,63,94,75,54,29.96,29.87,29.58,8,7,6,10,3,,2.05,3,Rain,84
2012-9-30,84,76,68,70,66,61,100,76,55,29.89,29.82,29.74,8,7,7,8,2,,0.90,4,,77